Location: ???????
(54.9996°N, 37.9529°E)
Time: 15:15:50
(UTC+00:00)

USA 215 - Pass Details

Date: 14 April 2024
Orbit: 1100 x 1107 km, 123.0° (Epoch: 22 April)

Event Time Altitude Azimuth Distance (km) Brightness Sun altitude
Rises 01:35:12 0° 89° (E) 3,925 7.4 -7.6°
Reaches altitude 10° 01:37:41 10° 88° (E) 2,967 6.7 -7.3°
Maximum altitude 01:44:14 77° 4° (N) 1,137 3.5 -6.5°
Drops below altitude 10° 01:50:46 10° 280° (W) 2,963 5.0 -5.6°
Sets 01:53:14 0° 279° (W) 3,921 5.6 -5.3°
